owner,sensor,date,latitude,longitude,vertical_datum,sea_water_temperature,qcFlag
Murphy,ioos:station:wmo:42925:1,2022-05-06T02:26:00Z,28.2425,-88.8270,17.7,25.5,11111222
Murphy,ioos:station:wmo:42925:1,2022-05-06T02:36:00Z,28.2425,-88.8270,18.2,25.4,11111222
Murphy,ioos:station:wmo:42925:1,2022-05-06T02:46:00Z,28.2425,-88.8270,18.6,25.3,11111222
Murphy,ioos:station:wmo:42925:1,2022-05-06T02:56:00Z,28.2425,-88.8270,19.2,25.3,11111222
Murphy,ioos:station:wmo:42925:1,2022-05-06T03:06:00Z,28.2425,-88.8270,18.8,25.3,11111222
Murphy,ioos:station:wmo:42925:1,2022-05-06T03:16:00Z,28.2425,-88.8270,18.8,25.3,11111222
Murphy,ioos:station:wmo:42925:1,2022-05-06T03:26:00Z,28.2425,-88.8270,17.9,25.3,11111222
Murphy,ioos:station:wmo:42925:1,2022-05-06T03:36:00Z,28.2425,-88.8270,18.5,25.3,11111222
Murphy,ioos:station:wmo:42925:1,2022-05-06T03:46:00Z,28.2425,-88.8270,18.1,25.3,11111222
Murphy,ioos:station:wmo:42925:1,2022-05-06T03:56:00Z,28.2425,-88.8270,18.8,25.3,11111222
Murphy,ioos:station:wmo:42925:1,2022-05-06T04:06:00Z,28.2425,-88.8270,18.4,25.3,11111222
Murphy,ioos:station:wmo:42925:1,2022-05-06T04:16:00Z,28.2425,-88.8270,18.7,25.3,11111222
Murphy,ioos:station:wmo:42925:1,2022-05-06T04:26:00Z,28.2425,-88.8270,18.9,25.3,11111222
Murphy,ioos:station:wmo:42925:1,2022-05-06T04:36:00Z,28.2425,-88.8270,18.9,25.3,11111222
Murphy,ioos:station:wmo:42925:1,2022-05-06T04:46:00Z,28.2425,-88.8270,18.3,25.3,11111222
Murphy,ioos:station:wmo:42925:1,2022-05-06T04:56:00Z,28.2425,-88.8270,18.8,25.3,11111222
Murphy,ioos:station:wmo:42925:1,2022-05-06T05:06:00Z,28.2425,-88.8270,18.4,25.4,11111222
Murphy,ioos:station:wmo:42925:1,2022-05-06T05:16:00Z,28.2425,-88.8270,18.9,25.3,11111222
Murphy,ioos:station:wmo:42925:1,2022-05-06T05:26:00Z,28.2425,-88.8270,18.4,25.4,11111222
Murphy,ioos:station:wmo:42925:1,2022-05-06T05:36:00Z,28.2425,-88.8270,18.1,25.5,11111222
Murphy,ioos:station:wmo:42925:1,2022-05-06T05:46:00Z,28.2425,-88.8270,18.2,25.6,11111222
Murphy,ioos:station:wmo:42925:1,2022-05-06T05:56:00Z,28.2425,-88.8270,18.0,25.5,11111222
Murphy,ioos:station:wmo:42925:1,2022-05-06T06:06:00Z,28.2425,-88.8270,18.3,25.5,11111222
Murphy,ioos:station:wmo:42925:1,2022-05-06T06:16:00Z,28.2425,-88.8270,18.2,25.6,11111222
Murphy,ioos:station:wmo:42925:1,2022-05-06T06:36:00Z,28.2425,-88.8270,18.2,25.6,11111222
Murphy,ioos:station:wmo:42925:1,2022-05-06T06:46:00Z,28.2425,-88.8270,17.7,25.8,11111222
Murphy,ioos:station:wmo:42925:1,2022-05-06T06:56:00Z,28.2425,-88.8270,18.8,26.1,11111222
Murphy,ioos:station:wmo:42925:1,2022-05-06T07:06:00Z,28.2425,-88.8270,17.9,26.2,11111222
Murphy,ioos:station:wmo:42925:1,2022-05-06T07:16:00Z,28.2425,-88.8270,17.9,26.1,11111222
Murphy,ioos:station:wmo:42925:1,2022-05-06T07:26:00Z,28.2425,-88.8270,18.3,26.2,11111222
Murphy,ioos:station:wmo:42925:1,2022-05-06T07:36:00Z,28.2425,-88.8270,18.2,26.2,11111222
Murphy,ioos:station:wmo:42925:1,2022-05-06T07:46:00Z,28.2425,-88.8270,18.2,26.2,11111222
Murphy,ioos:station:wmo:42925:1,2022-05-06T07:56:00Z,28.2425,-88.8270,18.0,26.2,11111222
Murphy,ioos:station:wmo:42925:1,2022-05-06T08:07:00Z,28.2425,-88.8270,18.0,26.2,11111222
Murphy,ioos:station:wmo:42925:1,2022-05-06T08:17:00Z,28.2425,-88.8270,18.0,26.1,11111222
Murphy,ioos:station:wmo:42925:1,2022-05-06T08:27:00Z,28.2425,-88.8270,18.1,26.0,11111222
Murphy,ioos:station:wmo:42925:1,2022-05-06T08:37:00Z,28.2425,-88.8270,17.5,25.9,11111222
Murphy,ioos:station:wmo:42925:1,2022-05-06T08:47:00Z,28.2425,-88.8270,18.3,25.6,11111222
Murphy,ioos:station:wmo:42925:1,2022-05-06T08:57:00Z,28.2425,-88.8270,17.5,25.8,11111222
Murphy,ioos:station:wmo:42925:1,2022-05-06T09:07:00Z,28.2425,-88.8270,17.8,25.6,11111222
Murphy,ioos:station:wmo:42925:1,2022-05-06T09:17:00Z,28.2425,-88.8270,17.8,25.5,11111222
Murphy,ioos:station:wmo:42925:1,2022-05-06T09:27:00Z,28.2425,-88.8270,18.4,25.3,11111222
Murphy,ioos:station:wmo:42925:1,2022-05-06T09:37:00Z,28.2425,-88.8270,18.4,25.6,11111222
Murphy,ioos:station:wmo:42925:1,2022-05-06T09:57:00Z,28.2425,-88.8270,18.2,25.6,11111222
Murphy,ioos:station:wmo:42925:1,2022-05-06T10:07:00Z,28.2425,-88.8270,18.0,25.5,11111222
Murphy,ioos:station:wmo:42925:1,2022-05-06T10:17:00Z,28.2425,-88.8270,18.0,25.5,11111222
Murphy,ioos:station:wmo:42925:1,2022-05-06T10:27:00Z,28.2425,-88.8270,18.4,25.5,11111222
Murphy,ioos:station:wmo:42925:1,2022-05-06T10:37:00Z,28.2425,-88.8270,18.4,25.4,11111222
Murphy,ioos:station:wmo:42925:1,2022-05-06T10:47:00Z,28.2425,-88.8270,18.4,25.4,11111222
Murphy,ioos:station:wmo:42925:1,2022-05-06T10:57:00Z,28.2425,-88.8270,18.3,25.2,11111222
Murphy,ioos:station:wmo:42925:1,2022-05-06T11:07:00Z,28.2425,-88.8270,19.0,25.0,11111222
Murphy,ioos:station:wmo:42925:1,2022-05-06T11:17:00Z,28.2425,-88.8270,18.9,24.8,11111222
Murphy,ioos:station:wmo:42925:1,2022-05-06T11:27:00Z,28.2425,-88.8270,18.5,24.7,11111222
Murphy,ioos:station:wmo:42925:1,2022-05-06T11:37:00Z,28.2425,-88.8270,18.3,24.6,11111222
Murphy,ioos:station:wmo:42925:1,2022-05-06T11:47:00Z,28.2425,-88.8270,18.8,24.5,11111222
Murphy,ioos:station:wmo:42925:1,2022-05-06T11:57:00Z,28.2425,-88.8270,18.5,24.3,11111222
Murphy,ioos:station:wmo:42925:1,2022-05-06T12:07:00Z,28.2425,-88.8270,18.2,24.3,11111222
Murphy,ioos:station:wmo:42925:1,2022-05-06T12:17:00Z,28.2425,-88.8270,18.4,24.3,11111222
Murphy,ioos:station:wmo:42925:1,2022-05-06T12:27:00Z,28.2425,-88.8270,18.5,24.4,11111222
Murphy,ioos:station:wmo:42925:1,2022-05-06T12:37:00Z,28.2425,-88.8270,18.7,24.4,11111222
Murphy,ioos:station:wmo:42925:1,2022-05-06T12:47:00Z,28.2425,-88.8270,18.3,24.2,11111222
Murphy,ioos:station:wmo:42925:1,2022-05-06T12:57:00Z,28.2425,-88.8270,18.3,24.3,11111222
Murphy,ioos:station:wmo:42925:1,2022-05-06T13:07:00Z,28.2425,-88.8270,18.4,24.3,11111222
Murphy,ioos:station:wmo:42925:1,2022-05-06T13:17:00Z,28.2425,-88.8270,18.4,24.3,11111222
Murphy,ioos:station:wmo:42925:1,2022-05-06T13:27:00Z,28.2425,-88.8270,18.5,24.1,11111222
Murphy,ioos:station:wmo:42925:1,2022-05-06T13:47:00Z,28.2425,-88.8270,18.6,24.1,11111222
Murphy,ioos:station:wmo:42925:1,2022-05-06T13:57:00Z,28.2425,-88.8270,18.7,24.3,11111222
Murphy,ioos:station:wmo:42925:1,2022-05-06T14:07:00Z,28.2425,-88.8270,18.6,24.3,11111222
Murphy,ioos:station:wmo:42925:1,2022-05-06T14:17:00Z,28.2425,-88.8270,18.5,24.3,11111222
Murphy,ioos:station:wmo:42925:1,2022-05-06T14:27:00Z,28.2425,-88.8270,18.5,24.2,11111222
Murphy,ioos:station:wmo:42925:1,2022-05-06T14:37:00Z,28.2425,-88.8270,18.1,24.4,11111222
Murphy,ioos:station:wmo:42925:1,2022-05-06T14:48:00Z,28.2425,-88.8270,18.5,24.3,11111222
Murphy,ioos:station:wmo:42925:1,2022-05-06T14:58:00Z,28.2425,-88.8270,18.5,24.2,11111222
Murphy,ioos:station:wmo:42925:1,2022-05-06T15:08:00Z,28.2425,-88.8270,18.2,24.1,11111222
Murphy,ioos:station:wmo:42925:1,2022-05-06T15:18:00Z,28.2425,-88.8270,18.5,24.2,11111222
Murphy,ioos:station:wmo:42925:1,2022-05-06T15:28:00Z,28.2425,-88.8270,17.8,24.0,11111222
Murphy,ioos:station:wmo:42925:1,2022-05-06T15:48:00Z,28.2425,-88.8270,18.4,24.0,11111222
Murphy,ioos:station:wmo:42925:1,2022-05-06T15:58:00Z,28.2425,-88.8270,18.5,23.9,11111222
Murphy,ioos:station:wmo:42925:1,2022-05-06T16:08:00Z,28.2425,-88.8270,17.7,23.9,11111222
Murphy,ioos:station:wmo:42925:1,2022-05-06T16:18:00Z,28.2425,-88.8270,17.6,23.9,11111222
Murphy,ioos:station:wmo:42925:1,2022-05-06T16:28:00Z,28.2425,-88.8270,18.4,24.0,11111222
Murphy,ioos:station:wmo:42925:1,2022-05-06T16:38:00Z,28.2425,-88.8270,18.4,24.1,11111222
Murphy,ioos:station:wmo:42925:1,2022-05-06T17:08:00Z,28.2425,-88.8270,18.6,24.1,11111222
Murphy,ioos:station:wmo:42925:1,2022-05-06T17:18:00Z,28.2425,-88.8270,18.3,24.4,11111222
Murphy,ioos:station:wmo:42925:1,2022-05-06T17:28:00Z,28.2425,-88.8270,18.2,24.4,11111222
Murphy,ioos:station:wmo:42925:1,2022-05-06T17:48:00Z,28.2425,-88.8270,18.4,24.4,11111222
Murphy,ioos:station:wmo:42925:1,2022-05-06T17:58:00Z,28.2425,-88.8270,18.8,24.3,11111222
Murphy,ioos:station:wmo:42925:1,2022-05-06T18:08:00Z,28.2425,-88.8270,18.1,24.2,11111222
Murphy,ioos:station:wmo:42925:1,2022-05-06T18:18:00Z,28.2425,-88.8270,18.3,24.4,11111222
Murphy,ioos:station:wmo:42925:1,2022-05-06T18:28:00Z,28.2425,-88.8270,18.9,24.3,11111222
Murphy,ioos:station:wmo:42925:1,2022-05-06T18:38:00Z,28.2425,-88.8270,18.6,24.1,11111222
Murphy,ioos:station:wmo:42925:1,2022-05-06T18:48:00Z,28.2425,-88.8270,18.3,23.7,11111222
Murphy,ioos:station:wmo:42925:1,2022-05-06T18:58:00Z,28.2425,-88.8270,17.5,23.7,11111222
Murphy,ioos:station:wmo:42925:1,2022-05-06T19:08:00Z,28.2425,-88.8270,18.0,23.7,11111222
Murphy,ioos:station:wmo:42925:1,2022-05-06T19:18:00Z,28.2425,-88.8270,17.9,23.6,11111222
Murphy,ioos:station:wmo:42925:1,2022-05-06T19:28:00Z,28.2425,-88.8270,17.8,23.7,11111222
Murphy,ioos:station:wmo:42925:1,2022-05-06T19:38:00Z,28.2425,-88.8270,17.9,23.6,11111222
Murphy,ioos:station:wmo:42925:1,2022-05-06T19:48:00Z,28.2425,-88.8270,18.1,23.7,11111222
Murphy,ioos:station:wmo:42925:1,2022-05-06T19:58:00Z,28.2425,-88.8270,17.8,23.6,11111222
Murphy,ioos:station:wmo:42925:1,2022-05-06T20:08:00Z,28.2425,-88.8270,18.9,23.6,11111222
Murphy,ioos:station:wmo:42925:1,2022-05-06T20:18:00Z,28.2425,-88.8270,18.5,23.6,11111222
Murphy,ioos:station:wmo:42925:1,2022-05-06T20:28:00Z,28.2425,-88.8270,17.8,23.5,11111222
Murphy,ioos:station:wmo:42925:1,2022-05-06T20:38:00Z,28.2425,-88.8270,18.6,24.0,11111222
Murphy,ioos:station:wmo:42925:1,2022-05-06T20:48:00Z,28.2425,-88.8270,18.2,23.9,11111222
Murphy,ioos:station:wmo:42925:1,2022-05-06T20:58:00Z,28.2425,-88.8270,18.0,23.1,11111222
Murphy,ioos:station:wmo:42925:1,2022-05-06T21:08:00Z,28.2425,-88.8270,18.4,23.1,11111222
Murphy,ioos:station:wmo:42925:1,2022-05-06T21:18:00Z,28.2425,-88.8270,18.3,23.4,11111222
Murphy,ioos:station:wmo:42925:1,2022-05-06T21:29:00Z,28.2425,-88.8270,18.5,23.7,11111222
Murphy,ioos:station:wmo:42925:1,2022-05-06T21:39:00Z,28.2425,-88.8270,18.2,23.6,11111222
Murphy,ioos:station:wmo:42925:1,2022-05-06T21:49:00Z,28.2425,-88.8270,18.6,23.5,11111222
Murphy,ioos:station:wmo:42925:1,2022-05-06T21:59:00Z,28.2425,-88.8270,18.0,23.5,11111222
Murphy,ioos:station:wmo:42925:1,2022-05-06T22:09:00Z,28.2425,-88.8270,17.9,23.7,11111222
Murphy,ioos:station:wmo:42925:1,2022-05-06T22:19:00Z,28.2425,-88.8270,18.2,23.8,11111222
Murphy,ioos:station:wmo:42925:1,2022-05-06T22:29:00Z,28.2425,-88.8270,18.3,23.3,11111222
Murphy,ioos:station:wmo:42925:1,2022-05-06T22:39:00Z,28.2425,-88.8270,18.6,23.8,11111222
Murphy,ioos:station:wmo:42925:1,2022-05-06T22:49:00Z,28.2425,-88.8270,18.1,24.0,11111222
Murphy,ioos:station:wmo:42925:1,2022-05-06T22:59:00Z,28.2425,-88.8270,18.4,23.8,11111222
Murphy,ioos:station:wmo:42925:1,2022-05-06T23:09:00Z,28.2425,-88.8270,18.4,24.4,11111222
Murphy,ioos:station:wmo:42925:1,2022-05-06T23:29:00Z,28.2425,-88.8270,18.5,24.3,11111222
Murphy,ioos:station:wmo:42925:1,2022-05-06T23:39:00Z,28.2425,-88.8270,18.1,24.1,11111222
Murphy,ioos:station:wmo:42925:1,2022-05-07T00:09:00Z,28.2425,-88.8270,18.7,24.8,11111222
Murphy,ioos:station:wmo:42925:1,2022-05-07T00:19:00Z,28.2425,-88.8270,19.2,24.7,11111222
Murphy,ioos:station:wmo:42925:1,2022-05-07T00:29:00Z,28.2425,-88.8270,18.7,25.8,11111222
Murphy,ioos:station:wmo:42925:1,2022-05-07T00:49:00Z,28.2425,-88.8270,18.6,26.0,11111222
Murphy,ioos:station:wmo:42925:1,2022-05-07T00:59:00Z,28.2425,-88.8270,18.1,25.9,11111222
Murphy,ioos:station:wmo:42925:1,2022-05-07T01:09:00Z,28.2425,-88.8270,18.0,25.9,11111222
Murphy,ioos:station:wmo:42925:1,2022-05-07T01:19:00Z,28.2425,-88.8270,18.2,25.9,11111222
Murphy,ioos:station:wmo:42925:1,2022-05-07T01:29:00Z,28.2425,-88.8270,18.5,25.8,11111222
Murphy,ioos:station:wmo:42925:1,2022-05-07T01:39:00Z,28.2425,-88.8270,18.6,25.7,11111222
Murphy,ioos:station:wmo:42925:1,2022-05-07T01:49:00Z,28.2425,-88.8270,18.1,25.7,11111222
Murphy,ioos:station:wmo:42925:1,2022-05-07T01:59:00Z,28.2425,-88.8270,17.8,25.5,11111222
Murphy,ioos:station:wmo:42925:1,2022-05-07T02:09:00Z,28.2425,-88.8270,18.2,25.3,11111222
Murphy,ioos:station:wmo:42925:1,2022-05-07T02:29:00Z,28.2425,-88.8270,18.8,25.0,11111222
Murphy,ioos:station:wmo:42925:1,2022-05-07T02:39:00Z,28.2425,-88.8270,18.8,25.0,11111222
Murphy,ioos:station:wmo:42925:1,2022-05-07T02:49:00Z,28.2425,-88.8270,18.5,24.7,11111222
Murphy,ioos:station:wmo:42925:1,2022-05-07T02:59:00Z,28.2425,-88.8270,18.8,24.3,11111222
Murphy,ioos:station:wmo:42925:1,2022-05-07T03:09:00Z,28.2425,-88.8270,18.4,24.0,11111222
Murphy,ioos:station:wmo:42925:1,2022-05-07T03:19:00Z,28.2425,-88.8270,18.4,23.6,11111222
Murphy,ioos:station:wmo:42925:1,2022-05-07T03:29:00Z,28.2425,-88.8270,18.1,23.2,11111222
Murphy,ioos:station:wmo:42925:1,2022-05-07T03:39:00Z,28.2425,-88.8270,18.5,23.0,11111222
Murphy,ioos:station:wmo:42925:1,2022-05-07T03:49:00Z,28.2425,-88.8270,19.1,22.9,11111222
Murphy,ioos:station:wmo:42925:1,2022-05-07T03:59:00Z,28.2425,-88.8270,18.4,23.6,11111222
Murphy,ioos:station:wmo:42925:1,2022-05-07T04:10:00Z,28.2425,-88.8270,18.8,24.5,11111222
Murphy,ioos:station:wmo:42925:1,2022-05-07T04:20:00Z,28.2425,-88.8270,18.3,25.4,11111222
Murphy,ioos:station:wmo:42925:1,2022-05-07T04:30:00Z,28.2425,-88.8270,18.4,25.7,11111222
Murphy,ioos:station:wmo:42925:1,2022-05-07T04:40:00Z,28.2425,-88.8270,18.3,25.7,11111222
Murphy,ioos:station:wmo:42925:1,2022-05-07T04:50:00Z,28.2425,-88.8270,17.9,25.9,11111222
Murphy,ioos:station:wmo:42925:1,2022-05-07T05:00:00Z,28.2425,-88.8270,18.7,25.7,11111222
Murphy,ioos:station:wmo:42925:1,2022-05-07T05:10:00Z,28.2425,-88.8270,18.2,25.8,11111222
Murphy,ioos:station:wmo:42925:1,2022-05-07T05:20:00Z,28.2425,-88.8270,18.5,25.8,11111222
Murphy,ioos:station:wmo:42925:1,2022-05-07T05:30:00Z,28.2425,-88.8270,18.1,25.8,11111222
Murphy,ioos:station:wmo:42925:1,2022-05-07T05:40:00Z,28.2425,-88.8270,18.1,25.8,11111222
Murphy,ioos:station:wmo:42925:1,2022-05-07T05:50:00Z,28.2425,-88.8270,18.0,25.8,11111222
Murphy,ioos:station:wmo:42925:1,2022-05-07T06:00:00Z,28.2425,-88.8270,17.9,25.7,11111222
Murphy,ioos:station:wmo:42925:1,2022-05-07T06:10:00Z,28.2425,-88.8270,18.3,25.7,11111222
Murphy,ioos:station:wmo:42925:1,2022-05-07T06:40:00Z,28.2425,-88.8270,18.3,25.9,11111222
Murphy,ioos:station:wmo:42925:1,2022-05-07T06:50:00Z,28.2425,-88.8270,17.8,25.9,11111222
Murphy,ioos:station:wmo:42925:1,2022-05-07T07:00:00Z,28.2425,-88.8270,17.8,25.9,11111222
Murphy,ioos:station:wmo:42925:1,2022-05-07T07:10:00Z,28.2425,-88.8270,18.6,25.9,11111222
Murphy,ioos:station:wmo:42925:1,2022-05-07T07:20:00Z,28.2425,-88.8270,18.7,25.9,11111222
Murphy,ioos:station:wmo:42925:1,2022-05-07T07:30:00Z,28.2425,-88.8270,17.8,26.0,11111222
Murphy,ioos:station:wmo:42925:1,2022-05-07T07:40:00Z,28.2425,-88.8270,18.2,26.0,11111222
Murphy,ioos:station:wmo:42925:1,2022-05-07T07:50:00Z,28.2425,-88.8270,18.2,26.0,11111222
Murphy,ioos:station:wmo:42925:1,2022-05-07T08:00:00Z,28.2425,-88.8270,18.2,26.0,11111222
Murphy,ioos:station:wmo:42925:1,2022-05-07T08:10:00Z,28.2425,-88.8270,18.3,26.0,11111222
Murphy,ioos:station:wmo:42925:1,2022-05-07T08:20:00Z,28.2425,-88.8270,17.8,26.0,11111222
Murphy,ioos:station:wmo:42925:1,2022-05-07T08:30:00Z,28.2425,-88.8270,18.2,26.0,11111222
Murphy,ioos:station:wmo:42925:1,2022-05-07T08:40:00Z,28.2425,-88.8270,18.4,25.9,11111222
Murphy,ioos:station:wmo:42925:1,2022-05-07T08:50:00Z,28.2425,-88.8270,18.2,25.9,11111222
Murphy,ioos:station:wmo:42925:1,2022-05-07T09:00:00Z,28.2425,-88.8270,18.0,25.9,11111222
Murphy,ioos:station:wmo:42925:1,2022-05-07T09:10:00Z,28.2425,-88.8270,18.1,25.9,11111222
Murphy,ioos:station:wmo:42925:1,2022-05-07T09:20:00Z,28.2425,-88.8270,18.3,25.9,11111222
Murphy,ioos:station:wmo:42925:1,2022-05-07T09:30:00Z,28.2425,-88.8270,17.9,25.9,11111222
Murphy,ioos:station:wmo:42925:1,2022-05-07T09:50:00Z,28.2425,-88.8270,18.6,25.9,11111222
Murphy,ioos:station:wmo:42925:1,2022-05-07T10:00:00Z,28.2425,-88.8270,18.0,25.9,11111222
Murphy,ioos:station:wmo:42925:1,2022-05-07T10:10:00Z,28.2425,-88.8270,18.3,26.0,11111222
Murphy,ioos:station:wmo:42925:1,2022-05-07T10:20:00Z,28.2425,-88.8270,18.4,26.0,11111222
Murphy,ioos:station:wmo:42925:1,2022-05-07T10:30:00Z,28.2425,-88.8270,18.0,26.0,11111222
Murphy,ioos:station:wmo:42925:1,2022-05-07T10:40:00Z,28.2425,-88.8270,18.1,25.9,11111222
Murphy,ioos:station:wmo:42925:1,2022-05-07T11:01:00Z,28.2425,-88.8270,18.5,25.9,11111222
Murphy,ioos:station:wmo:42925:1,2022-05-07T11:11:00Z,28.2425,-88.8270,18.3,25.9,11111222
Murphy,ioos:station:wmo:42925:1,2022-05-07T11:21:00Z,28.2425,-88.8270,18.2,25.9,11111222
Murphy,ioos:station:wmo:42925:1,2022-05-07T11:31:00Z,28.2425,-88.8270,18.4,25.9,11111222
Murphy,ioos:station:wmo:42925:1,2022-05-07T11:41:00Z,28.2425,-88.8270,18.0,25.9,11111222
Murphy,ioos:station:wmo:42925:1,2022-05-07T11:51:00Z,28.2425,-88.8270,18.5,25.9,11111222
Murphy,ioos:station:wmo:42925:1,2022-05-07T12:01:00Z,28.2425,-88.8270,18.5,26.0,11111222
Murphy,ioos:station:wmo:42925:1,2022-05-07T12:11:00Z,28.2425,-88.8270,18.6,26.1,11111222
Murphy,ioos:station:wmo:42925:1,2022-05-07T12:21:00Z,28.2425,-88.8270,18.4,26.1,11111222
Murphy,ioos:station:wmo:42925:1,2022-05-07T12:31:00Z,28.2425,-88.8270,18.4,26.1,11111222
Murphy,ioos:station:wmo:42925:1,2022-05-07T12:41:00Z,28.2425,-88.8270,18.3,26.1,11111222
Murphy,ioos:station:wmo:42925:1,2022-05-21T19:57:00Z,28.2425,-88.8270,17.5,27.1,11111222
Murphy,ioos:station:wmo:42925:1,2022-05-21T20:07:00Z,28.2425,-88.8270,17.7,27.1,11111222
Murphy,ioos:station:wmo:42925:1,2022-05-21T20:17:00Z,28.2425,-88.8270,17.8,27.1,11111222
Murphy,ioos:station:wmo:42925:1,2022-05-21T20:27:00Z,28.2425,-88.8270,17.8,27.1,11111222
Murphy,ioos:station:wmo:42925:1,2022-05-21T20:37:00Z,28.2425,-88.8270,17.8,27.1,11111222
Murphy,ioos:station:wmo:42925:1,2022-05-21T20:47:00Z,28.2425,-88.8270,17.6,27.1,11111222
Murphy,ioos:station:wmo:42925:1,2022-05-21T20:57:00Z,28.2425,-88.8270,17.8,27.1,11111222
Murphy,ioos:station:wmo:42925:1,2022-05-21T21:07:00Z,28.2425,-88.8270,17.9,27.1,11111222
Murphy,ioos:station:wmo:42925:1,2022-05-21T21:17:00Z,28.2425,-88.8270,17.8,27.1,11111222
Murphy,ioos:station:wmo:42925:1,2022-05-21T21:27:00Z,28.2425,-88.8270,17.9,27.1,11111222
Murphy,ioos:station:wmo:42925:1,2022-05-21T21:37:00Z,28.2425,-88.8270,17.8,27.0,11111222
Murphy,ioos:station:wmo:42925:1,2022-05-21T21:47:00Z,28.2425,-88.8270,17.8,27.1,11111222
Murphy,ioos:station:wmo:42925:1,2022-05-21T21:57:00Z,28.2425,-88.8270,17.7,27.1,11111222
Murphy,ioos:station:wmo:42925:1,2022-05-21T22:07:00Z,28.2425,-88.8270,17.7,27.1,11111222
Murphy,ioos:station:wmo:42925:1,2022-05-21T22:17:00Z,28.2425,-88.8270,17.7,27.2,11111222
Murphy,ioos:station:wmo:42925:1,2022-05-21T22:27:00Z,28.2425,-88.8270,17.6,27.2,11111222
Murphy,ioos:station:wmo:42925:1,2022-05-21T22:37:00Z,28.2425,-88.8270,17.7,27.2,11111222
Murphy,ioos:station:wmo:42925:1,2022-05-21T22:47:00Z,28.2425,-88.8270,17.7,27.2,11111222
Murphy,ioos:station:wmo:42925:1,2022-05-21T22:57:00Z,28.2425,-88.8270,17.8,27.2,11111222
Murphy,ioos:station:wmo:42925:1,2022-05-21T23:07:00Z,28.2425,-88.8270,17.7,27.2,11111222
Murphy,ioos:station:wmo:42925:1,2022-05-21T23:17:00Z,28.2425,-88.8270,17.7,27.2,11111222
Murphy,ioos:station:wmo:42925:1,2022-05-21T23:27:00Z,28.2425,-88.8270,17.7,27.2,11111222
Murphy,ioos:station:wmo:42925:1,2022-05-21T23:37:00Z,28.2425,-88.8270,17.6,27.2,11111222
Murphy,ioos:station:wmo:42925:1,2022-05-21T23:57:00Z,28.2425,-88.8270,17.7,27.2,11111222
Murphy,ioos:station:wmo:42925:1,2022-05-22T00:07:00Z,28.2425,-88.8270,17.8,27.2,11111222
Murphy,ioos:station:wmo:42925:1,2022-05-22T00:17:00Z,28.2425,-88.8270,17.8,27.2,11111222
Murphy,ioos:station:wmo:42925:1,2022-05-22T00:27:00Z,28.2425,-88.8270,17.8,27.2,11111222
Murphy,ioos:station:wmo:42925:1,2022-05-22T00:37:00Z,28.2425,-88.8270,17.8,27.1,11111222
Murphy,ioos:station:wmo:42925:1,2022-05-22T00:47:00Z,28.2425,-88.8270,17.7,27.2,11111222
Murphy,ioos:station:wmo:42925:1,2022-05-22T00:57:00Z,28.2425,-88.8270,17.6,27.0,11111222
Murphy,ioos:station:wmo:42925:1,2022-05-22T01:07:00Z,28.2425,-88.8270,17.6,27.0,11111222
Murphy,ioos:station:wmo:42925:1,2022-05-22T01:17:00Z,28.2425,-88.8270,17.5,27.0,11111222
Murphy,ioos:station:wmo:42925:1,2022-05-22T01:27:00Z,28.2425,-88.8270,17.5,27.1,11111222
Murphy,ioos:station:wmo:42925:1,2022-05-22T01:38:00Z,28.2425,-88.8270,17.6,27.1,11111222
Murphy,ioos:station:wmo:42925:1,2022-05-22T01:48:00Z,28.2425,-88.8270,17.6,27.0,11111222
Murphy,ioos:station:wmo:42925:1,2022-05-22T01:58:00Z,28.2425,-88.8270,17.6,26.9,11111222
Murphy,ioos:station:wmo:42925:1,2022-05-22T02:08:00Z,28.2425,-88.8270,17.7,27.0,11111222
Murphy,ioos:station:wmo:42925:1,2022-05-22T02:18:00Z,28.2425,-88.8270,17.7,26.8,11111222
Murphy,ioos:station:wmo:42925:1,2022-05-22T02:28:00Z,28.2425,-88.8270,17.8,26.6,11111222
Murphy,ioos:station:wmo:42925:1,2022-05-22T02:38:00Z,28.2425,-88.8270,17.8,26.5,11111222
Murphy,ioos:station:wmo:42925:1,2022-05-22T02:48:00Z,28.2425,-88.8270,17.7,26.4,11111222
Murphy,ioos:station:wmo:42925:1,2022-05-22T02:58:00Z,28.2425,-88.8270,17.7,26.5,11111222
Murphy,ioos:station:wmo:42925:1,2022-05-22T03:08:00Z,28.2425,-88.8270,17.6,26.9,11111222
Murphy,ioos:station:wmo:42925:1,2022-05-22T03:18:00Z,28.2425,-88.8270,17.6,26.8,11111222
Murphy,ioos:station:wmo:42925:1,2022-05-22T03:28:00Z,28.2425,-88.8270,17.6,26.8,11111222
Murphy,ioos:station:wmo:42925:1,2022-05-22T03:38:00Z,28.2425,-88.8270,17.7,26.5,11111222
Murphy,ioos:station:wmo:42925:1,2022-05-22T03:48:00Z,28.2425,-88.8270,17.7,26.7,11111222
Murphy,ioos:station:wmo:42925:1,2022-05-22T03:58:00Z,28.2425,-88.8270,17.7,26.7,11111222
Murphy,ioos:station:wmo:42925:1,2022-05-22T04:08:00Z,28.2425,-88.8270,17.7,26.7,11111222
Murphy,ioos:station:wmo:42925:1,2022-05-22T04:18:00Z,28.2425,-88.8270,17.6,26.6,11111222
Murphy,ioos:station:wmo:42925:1,2022-05-22T04:28:00Z,28.2425,-88.8270,17.6,26.5,11111222
Murphy,ioos:station:wmo:42925:1,2022-05-22T04:38:00Z,28.2425,-88.8270,17.6,26.9,11111222
Murphy,ioos:station:wmo:42925:1,2022-05-22T04:48:00Z,28.2425,-88.8270,17.6,26.8,11111222
Murphy,ioos:station:wmo:42925:1,2022-05-22T04:58:00Z,28.2425,-88.8270,17.6,26.8,11111222
Murphy,ioos:station:wmo:42925:1,2022-05-22T05:08:00Z,28.2425,-88.8270,17.6,26.7,11111222
Murphy,ioos:station:wmo:42925:1,2022-05-22T05:18:00Z,28.2425,-88.8270,17.6,26.6,11111222
Murphy,ioos:station:wmo:42925:1,2022-05-22T05:38:00Z,28.2425,-88.8270,17.7,26.4,11111222
Murphy,ioos:station:wmo:42925:1,2022-05-22T05:48:00Z,28.2425,-88.8270,17.7,26.4,11111222
Murphy,ioos:station:wmo:42925:1,2022-05-22T05:58:00Z,28.2425,-88.8270,17.7,26.6,11111222
Murphy,ioos:station:wmo:42925:1,2022-05-22T06:08:00Z,28.2425,-88.8270,17.6,26.4,11111222
Murphy,ioos:station:wmo:42925:1,2022-05-22T06:38:00Z,28.2425,-88.8270,17.7,26.6,11111222
Murphy,ioos:station:wmo:42925:1,2022-05-22T06:48:00Z,28.2425,-88.8270,17.8,26.6,11111222
Murphy,ioos:station:wmo:42925:1,2022-05-22T06:58:00Z,28.2425,-88.8270,17.8,26.7,11111222
Murphy,ioos:station:wmo:42925:1,2022-05-22T07:28:00Z,28.2425,-88.8270,17.7,26.4,11111222
Murphy,ioos:station:wmo:42925:1,2022-05-22T07:38:00Z,28.2425,-88.8270,17.9,26.2,11111222
Murphy,ioos:station:wmo:42925:1,2022-05-22T08:08:00Z,28.2425,-88.8270,17.9,27.1,11111222
Murphy,ioos:station:wmo:42925:1,2022-05-22T08:18:00Z,28.2425,-88.8270,17.9,26.8,11111222
Murphy,ioos:station:wmo:42925:1,2022-05-26T07:12:00Z,28.2425,-88.8270,17.6,27.2,11111222
Murphy,ioos:station:wmo:42925:1,2022-05-26T07:42:00Z,28.2425,-88.8270,17.8,27.3,11111222
Murphy,ioos:station:wmo:42925:1,2022-05-26T07:52:00Z,28.2425,-88.8270,17.9,27.3,11111222
Murphy,ioos:station:wmo:42925:1,2022-05-26T08:02:00Z,28.2425,-88.8270,17.9,27.2,11111222
Murphy,ioos:station:wmo:42925:1,2022-05-26T08:12:00Z,28.2425,-88.8270,17.9,27.3,11111222
Murphy,ioos:station:wmo:42925:1,2022-05-26T08:22:00Z,28.2425,-88.8270,17.9,27.2,11111222
Murphy,ioos:station:wmo:42925:1,2022-05-26T08:53:00Z,28.2425,-88.8270,17.8,27.3,11111222
Murphy,ioos:station:wmo:42925:1,2022-05-26T09:03:00Z,28.2425,-88.8270,17.9,27.3,11111222